User: anonymous   Login
Location: Betz
(49.1556°N, 2.9558°E)
Time: 09:21:03
(UTC+00:00)
Language:

Resurs 01 Rocket - Orbit

View from above orbital plane
View from above orbital plane
View from above satellite
View from above satellite

Ground track
Ground track

The orbit data is extracted from the following two-line orbital elements,

1 23343U 94074B   19318.17190591  .00000028  00000-0  11405-4 0  9999
2 23343  98.0332   7.6774 0008055 121.5328 304.1132 14.76798452346700
Epoch (UTC): 14 November 2019 04:07:32
Eccentricity: 0.0008055
inclination: 98.0332°
perigee height: 634 km
apogee height: 645 km
right ascension of ascending node: 7.6774°
argument of perigee: 121.5328°
revolutions per day: 14.76798452
mean anomaly at epoch: 304.1132°
orbit number at epoch: 34670

The dashed part of the orbit path shows where the satellite is in the earth's shadow,  

DLR